Burlington, IA

12:21 AM CDT on August 20, 2017 (GMT -0500)
Burlington Regional

Weather History for KBRL - January, 2013

Change the Weather History Date:

Wednesday, January 16, 2013

  Actual Average Record
Temperature  
Mean Temperature 26 °F 26 °F  
Max Temperature 39 °F 34 °F 63 °F (1990)
Min Temperature 13 °F 17 °F -21 °F (2009)
Degree Days  
Heating Degree Days 39 39  
Month to date heating degree days 599 624  
Since 1 July heating degree days 2792 2810  
Cooling Degree Days 0 0  
Month to date cooling degree days 0 0  
Year to date cooling degree days 0 0  
Moisture  
Dew Point 20 °F    
Average Humidity 72    
Maximum Humidity 88    
Minimum Humidity 56    
Precipitation  
Precipitation 0.00 in 0.05 in 1.05 in (2017)
Month to date precipitation 0.61 0.67  
Year to date precipitation 0.61 0.67  
Sea Level Pressure  
Sea Level Pressure 30.03 in    
Wind  
Wind Speed 9 mph (SW)    
Max Wind Speed 21 mph    
Max Gust Speed 25 mph    
Visibility 10 miles    
Events      
T = Trace of Precipitation, MM = Missing Value Source: NWS Daily Summary

Daily Weather History Graph

Daily Weather History Graph

Search for Another Location

Airport or City:

Trip Planner

Search our weather history database for the weather conditions in past years. The results will help you decide how hot, cold, wet, or windy it might be!

Date:

Astronomy

Jan. 16, 2013 Rise Set
Actual Time 7:26 AM CST 5:03 PM CST
Civil Twilight 6:55 AM CST 5:33 PM CST
Nautical Twilight 6:22 AM CST 6:06 PM CST
Astronomical Twilight 5:49 AM CST 6:39 PM CST
Moon 10:00 AM CST (1/16) 10:57 PM CST (1/16)
Length of Visible Light 10h 37m
Length of Day
9h 37m
Waxing Crescent, 28% of the Moon is Illuminated
Jan 16
Waxing Crescent
Jan 18
First Quarter
Jan 26
Full
Feb 3
Last Quarter
Feb 10
New

Hourly Weather History & Observations

Time (CST) Temp. Windchill Dew Point Humidity Pressure Visibility Wind Dir Wind Speed Gust Speed Precip Events Conditions
12:53 AM 15.1 °F 7.7 °F 10.0 °F 80% 30.16 in 10.0 mi SW 4.6 mph - N/A   Clear
1:53 AM 14.0 °F 5.1 °F 10.9 °F 88% 30.15 in 9.0 mi SSW 5.8 mph - N/A   Clear
2:53 AM 14.0 °F 3.9 °F 10.0 °F 84% 30.13 in 10.0 mi SW 6.9 mph - N/A   Clear
3:53 AM 15.1 °F 5.2 °F 10.0 °F 80% 30.10 in 10.0 mi SW 6.9 mph - N/A   Clear
4:53 AM 12.9 °F 5.2 °F 9.0 °F 84% 30.08 in 10.0 mi SW 4.6 mph - N/A   Clear
5:53 AM 15.8 °F 6.1 °F 10.4 °F 79% 30.03 in 10.0 mi SSW 6.9 mph - N/A   Clear
6:53 AM 17.1 °F 5.8 °F 10.9 °F 77% 30.04 in 10.0 mi SSW 9.2 mph - N/A   Clear
7:53 AM 18.0 °F 6.9 °F 10.9 °F 74% 30.03 in 9.0 mi SSW 9.2 mph - N/A   Clear
8:53 AM 21.0 °F 11.4 °F 14.0 °F 74% 30.04 in 10.0 mi SW 8.1 mph - N/A   Clear
9:53 AM 26.1 °F 13.6 °F 17.1 °F 69% 30.01 in 10.0 mi SW 16.1 mph - N/A   Clear
10:53 AM 30.0 °F 18.7 °F 18.0 °F 61% 29.99 in 10.0 mi SW 16.1 mph - N/A   Clear
11:53 AM 33.1 °F 22.6 °F 21.0 °F 61% 29.96 in 10.0 mi SW 16.1 mph 23.0 mph N/A   Clear
12:49 PM 35.6 °F 26.6 °F 21.2 °F 56% 29.91 in 10.0 mi SSW 13.8 mph - N/A   Mostly Cloudy
12:53 PM 35.1 °F 25.5 °F 21.9 °F 59% 29.93 in 10.0 mi SSW 15.0 mph - N/A   Mostly Cloudy
1:35 PM 37.4 °F 27.5 °F 23.0 °F 56% 29.89 in 10.0 mi SW 18.4 mph 25.3 mph N/A   Scattered Clouds
1:53 PM 37.9 °F 29.2 °F 24.1 °F 57% 29.92 in 10.0 mi SW 15.0 mph 23.0 mph N/A   Clear
2:53 PM 37.9 °F 29.2 °F 25.0 °F 60% 29.96 in 10.0 mi WSW 15.0 mph - N/A   Overcast
3:53 PM 37.9 °F 30.9 °F 27.0 °F 65% 29.97 in 10.0 mi SW 10.4 mph - N/A   Overcast
4:53 PM 36.0 °F 30.3 °F 27.0 °F 70% 29.99 in 10.0 mi SW 6.9 mph - N/A   Clear
5:53 PM 34.0 °F 28.0 °F 27.0 °F 75% 30.02 in 10.0 mi SSW 6.9 mph - N/A   Mostly Cloudy
6:53 PM 34.0 °F 27.2 °F 27.0 °F 75% 30.04 in 10.0 mi SSW 8.1 mph - N/A   Scattered Clouds
7:53 PM 35.1 °F 28.6 °F 28.0 °F 76% 30.06 in 10.0 mi SW 8.1 mph - N/A   Overcast
8:53 PM 35.1 °F 28.6 °F 28.0 °F 76% 30.06 in 10.0 mi SW 8.1 mph - N/A   Overcast
9:53 PM 36.0 °F 30.3 °F 28.0 °F 73% 30.07 in 10.0 mi West 6.9 mph - N/A   Overcast
10:53 PM 37.0 °F 32.4 °F 28.9 °F 73% 30.09 in 10.0 mi NW 5.8 mph - N/A   Overcast
11:29 PM 37.4 °F 32.8 °F 30.2 °F 75% 30.09 in 10.0 mi NW 5.8 mph - N/A   Mostly Cloudy
11:53 PM 37.0 °F 33.3 °F 30.9 °F 79% 30.12 in 10.0 mi NW 4.6 mph - N/A   Overcast